Location: Newark
(55.7816°N, 8.2389°E)
Time: 00:54:01
(UTC+00:00)

LilacSat-2 - Pass Details

Date: 25 February 2020
Orbit: 514 x 534 km, 97.5° (Epoch: 01 April)

Event Time Altitude Azimuth Distance (km) Brightness Sun altitude
Rises 05:30:07 0° 15° (NNE) 2,656 ? -9.1°
Reaches altitude 10° 05:32:13 10° 17° (NNE) 1,765 ? -8.8°
Maximum altitude 05:36:02 78° 104° (ESE) 541 ? -8.3°
Drops below altitude 10° 05:39:50 10° 191° (S) 1,761 ? -7.7°
Sets 05:41:56 0° 193° (SSW) 2,649 ? -7.4°
